Tracking 29892 objects as of 21-Nov-2024
HD Live streaming from Space Station
objects crossing your sky now

DELTA 1 DEB

Track DELTA 1 DEB now!
10-day predictions


NORAD ID: 12263
Int'l Code: 1978-026DG
Perigee: 826.2 km
Apogee: 1,473.1 km
Inclination: 98.9 °
Period: 108.2 minutes
Semi major axis: 7520 km
RCS: 0.072 m2 (small)
Launch date: March 5, 1978
Source: United States (US)
Launch site: AIR FORCE WESTERN TEST RANGE (AFWTR)

Note: This is SATELLITE DEBRIS
Your satellite tracking list
Your tracking list is empty




NASA's NSSDC Master Catalog

Two Line Element Set (TLE):
1 12263U 78026DG  24325.75555254  .00003243  00000-0  41275-2 0  9994
2 12263  98.8907 141.7076 0430025 342.3347  16.3211 13.31129346 93372
Source of the keplerian elements: AFSPC